Location: Pedimozza
(42.0500°N, 9.3500°E)
Time: 10:50:38
(UTC+00:00)

Unknown - Pass Details

Date: 19 August 2019
Orbit: 548 x 551 km, 53.0° (Epoch: 15 September)

Event Time Altitude Azimuth Distance (km) Brightness Sun altitude
Rises 19:36:59 0° 308° (NW) 2,722 9.1 -14.1°
Reaches altitude 10° 19:39:14 10° 310° (NW) 1,826 7.7 -14.5°
Maximum altitude 19:43:22 74° 35° (NE) 575 3.6 -15.1°
Enters shadow 19:45:24 29° 116° (ESE) 1,022 4.4 -15.5°
